Saryozek

Kazakhstan     44˚21′10″N   77˚58′01″E
temp.,
°C
wind,
m/s
gust,
m/s
humid.,
%
clouds,
%
prec.,
mm/h
press.,
hPa
HPBL,
m
3 december, thu
thu300:00−3˚se114798 0.0 102921
03:00−3˚e124799 0.0 102821
06:00−3˚sse2247100 0.0 102821
09:00−1˚s1258100 0.0 102821
12:00+2˚ene1276100 0.0 102724
15:00+1˚e2275100 0.0 102621
18:00ese1177100 0.0 102722
21:00nne1179100 0.0 102722
4 december, fri
fri400:00−1˚ene2383100 0.0 102724
03:00−3˚nne1286100 0.0 102621
06:00−3˚ene1297100 0.1 102623
09:00−1˚ne2498100 0.1 1026138
12:00nne3599100 0.3 1026259
15:00−1˚nne4698100 0.0 1025328
18:00−1˚nne3698100 0.1 1026238
21:00−2˚n3598100 0.6 1027226
5 december, sat
sat500:00−3˚nne2498100 1.4 1026144
03:00−3˚nne2498100 0.7 1027123
06:00−4˚nne2497100 1.6 1027172
09:00−4˚nne2497100 0.4 1028119
12:00−3˚nne4697100 0.6 1028270
15:00−3˚nne469798 0.1 1028311
18:00−5˚nne579899 0.3 1030369
21:00−7˚nne339999 0.1 103148
6 december, sun
sun600:00−7˚ene129799 0.1 103172
03:00−8˚e119389 0.1 103221
06:00−8˚e119274 0.1 103221
09:00−8˚se11902 0.0 103322
12:00−4˚wnw008728 0.0 103265
15:00−4˚nne119152 0.0 103126
18:00−8˚e118827 0.0 103121
21:00−7˚e11800 0.0 103021
7 december, mon
mon700:00−7˚ene117328 0.0 102821
03:00−8˚ene11695 0.0 102621
06:00−7˚ese116519 0.0 102521
09:00−6˚ssw1164100 0.0 102521
12:00−3˚sw1175100 0.0 102344
15:00−3˚w0079100 0.0 102323
18:00−5˚ssw1185100 0.0 102521
21:00−5˚ese1180100 0.0 102721